Time,TemperatureF,DewpointF,PressureIn,WindDirection,WindDirectionDegrees,WindSpeedMPH,WindSpeedGustMPH,Humidity,HourlyPrecipIn,Conditions,Clouds,dailyrainin,SoftwareType,DateUTC
2014-01-21 00:22:00,27.0,11.0,29.85,NNW,342,0.0,5.0,51,0.00,,,0.09,,2014-01-21 05:22:00,
2014-01-21 00:42:00,27.0,12.0,29.85,NW,316,0.0,4.0,52,0.00,,,0.17,,2014-01-21 05:42:00,
2014-01-21 00:52:00,26.0,11.0,29.86,NNE,19,0.0,3.0,53,0.00,,,0.17,,2014-01-21 05:52:00,
2014-01-21 01:22:00,25.0,10.0,29.85,WNW,291,2.0,4.0,53,0.00,,,0.17,,2014-01-21 06:22:00,
2014-01-21 01:42:00,25.0,10.0,29.86,NNE,27,0.0,2.0,53,0.00,,,0.17,,2014-01-21 06:42:00,
2014-01-21 01:52:00,25.0,11.0,29.86,SE,131,0.0,2.0,54,0.00,,,0.17,,2014-01-21 06:52:00,
2014-01-21 02:21:00,24.0,9.0,29.88,NNW,332,1.0,4.0,53,0.00,,,0.17,,2014-01-21 07:21:00,
2014-01-21 02:53:00,24.0,9.0,29.88,WSW,252,0.0,4.0,52,0.00,,,0.17,,2014-01-21 07:53:00,
2014-01-21 03:22:00,23.0,8.0,29.88,WNW,288,0.0,7.0,51,0.00,,,0.17,,2014-01-21 08:22:00,
2014-01-21 03:42:00,23.0,8.0,29.88,NE,47,1.0,3.0,51,0.00,,,0.17,,2014-01-21 08:42:00,
2014-01-21 03:52:00,23.0,7.0,29.88,ENE,75,0.0,5.0,50,0.00,,,0.17,,2014-01-21 08:52:00,
2014-01-21 04:22:00,22.0,6.0,29.89,NNW,346,1.0,3.0,50,0.00,,,0.17,,2014-01-21 09:22:00,
2014-01-21 04:53:00,22.0,7.0,29.88,NE,41,1.0,3.0,51,0.00,,,0.17,,2014-01-21 09:53:00,
2014-01-21 05:23:00,21.0,7.0,29.89,ENE,65,0.0,2.0,53,0.00,,,0.17,,2014-01-21 10:23:00,
2014-01-21 05:52:00,21.0,9.0,29.90,NNE,22,3.0,10.0,58,0.00,,,0.17,,2014-01-21 10:52:00,
2014-01-21 06:22:00,20.0,8.0,29.89,NE,46,5.0,8.0,58,0.00,,,0.17,,2014-01-21 11:22:00,
2014-01-21 06:42:00,20.0,8.0,29.90,NE,34,3.0,9.0,60,0.00,,,0.17,,2014-01-21 11:42:00,
2014-01-21 06:52:00,19.0,8.0,29.91,NE,51,2.0,8.0,61,0.00,,,0.17,,2014-01-21 11:52:00,
2014-01-21 07:22:00,19.0,8.0,29.93,ENE,60,2.0,7.0,61,0.00,,,0.17,,2014-01-21 12:22:00,
2014-01-21 07:42:00,19.0,8.0,29.93,ENE,65,3.0,7.0,62,0.00,,,0.17,,2014-01-21 12:42:00,
2014-01-21 07:52:00,18.0,7.0,29.92,NE,48,3.0,8.0,61,0.00,,,0.17,,2014-01-21 12:52:00,
2014-01-21 08:11:00,18.0,6.0,29.91,NE,54,7.0,13.0,60,0.00,,,0.17,,2014-01-21 13:11:00,
2014-01-21 08:22:00,18.0,6.0,29.92,NE,55,5.0,9.0,60,0.00,,,0.17,,2014-01-21 13:22:00,
2014-01-21 08:42:00,17.0,5.0,29.92,NE,55,3.0,9.0,59,0.00,,,0.17,,2014-01-21 13:42:00,
2014-01-21 08:52:00,17.0,5.0,29.92,ENE,61,4.0,10.0,59,0.00,,,0.09,,2014-01-21 13:52:00,
2014-01-21 09:22:00,17.0,4.0,29.92,NE,45,5.0,10.0,57,0.00,,,0.09,,2014-01-21 14:22:00,
2014-01-21 09:42:00,17.0,4.0,29.93,NE,34,4.0,7.0,57,0.00,,,0.09,,2014-01-21 14:42:00,
2014-01-21 09:52:00,17.0,5.0,29.94,ENE,65,5.0,8.0,59,0.00,,,0.09,,2014-01-21 14:52:00,
2014-01-21 10:22:00,17.0,7.0,29.96,NE,44,2.0,4.0,65,0.00,,,0.09,,2014-01-21 15:22:00,
2014-01-21 10:53:00,16.0,8.0,29.96,NE,50,2.0,8.0,69,0.00,,,0.09,,2014-01-21 15:53:00,
2014-01-21 11:23:00,15.0,8.0,29.96,NE,38,3.0,12.0,73,0.00,,,0.09,,2014-01-21 16:23:00,
2014-01-21 11:43:00,14.0,8.0,29.95,NNE,27,3.0,6.0,75,0.00,,,0.09,,2014-01-21 16:43:00,
2014-01-21 11:52:00,15.0,9.0,29.95,NNE,20,1.0,8.0,75,0.00,,,0.09,,2014-01-21 16:52:00,
2014-01-21 12:22:00,14.0,8.0,29.94,NE,35,2.0,8.0,76,0.00,,,0.09,,2014-01-21 17:22:00,
2014-01-21 12:42:00,14.0,8.0,29.92,NE,40,3.0,9.0,77,0.00,,,0.09,,2014-01-21 17:42:00,
2014-01-21 12:53:00,15.0,9.0,29.91,ENE,61,2.0,7.0,78,0.00,,,0.09,,2014-01-21 17:53:00,
2014-01-21 13:22:00,14.0,8.0,29.88,NNE,30,5.0,11.0,78,0.00,,,0.09,,2014-01-21 18:22:00,
2014-01-21 13:52:00,14.0,8.0,29.85,NNE,24,6.0,11.0,78,0.00,,,0.08,,2014-01-21 18:52:00,
2014-01-21 14:22:00,13.0,7.0,29.84,NE,44,5.0,12.0,77,0.00,,,0.07,,2014-01-21 19:22:00,
2014-01-21 14:42:00,12.0,6.0,29.84,NE,40,3.0,13.0,77,0.00,,,0.06,,2014-01-21 19:42:00,
2014-01-21 14:52:00,12.0,6.0,29.83,NNE,20,4.0,11.0,77,0.00,,,0.06,,2014-01-21 19:52:00,
2014-01-21 15:22:00,12.0,6.0,29.83,NE,45,5.0,12.0,78,0.00,,,0.05,,2014-01-21 20:22:00,
2014-01-21 15:52:00,12.0,6.0,29.83,NNE,21,6.0,10.0,78,0.00,,,0.04,,2014-01-21 20:52:00,
2014-01-21 16:22:00,11.0,6.0,29.84,NE,36,2.0,9.0,79,0.00,,,0.03,,2014-01-21 21:22:00,
2014-01-21 16:43:00,11.0,6.0,29.84,NNE,30,3.0,9.0,79,0.00,,,0.03,,2014-01-21 21:43:00,
2014-01-21 16:53:00,11.0,6.0,29.84,NNE,22,3.0,9.0,79,0.00,,,0.02,,2014-01-21 21:53:00,
2014-01-21 17:23:00,11.0,6.0,29.85,NNE,33,6.0,9.0,80,0.00,,,0.02,,2014-01-21 22:23:00,
2014-01-21 17:52:00,11.0,6.0,29.84,NNE,29,4.0,8.0,80,0.00,,,0.02,,2014-01-21 22:52:00,
2014-01-21 18:22:00,11.0,6.0,29.85,NNE,26,1.0,8.0,80,0.00,,,0.01,,2014-01-21 23:22:00,
2014-01-21 18:52:00,10.0,5.0,29.85,NE,44,3.0,10.0,80,0.00,,,0.01,,2014-01-21 23:52:00,
2014-01-21 19:11:00,10.0,5.0,29.86,North,1,1.0,4.0,80,0.00,,,0.01,,2014-01-22 00:11:00,
2014-01-21 19:22:00,10.0,5.0,29.85,NNE,27,2.0,9.0,79,0.00,,,0.01,,2014-01-22 00:22:00,
2014-01-21 19:42:00,9.0,4.0,29.86,NNE,24,2.0,8.0,80,0.00,,,0.01,,2014-01-22 00:42:00,
2014-01-21 19:52:00,9.0,4.0,29.85,NE,36,3.0,8.0,79,0.00,,,0.01,,2014-01-22 00:52:00,
2014-01-21 20:22:00,8.0,3.0,29.85,North,5,1.0,8.0,79,0.00,,,0.00,,2014-01-22 01:22:00,
2014-01-21 20:42:00,8.0,3.0,29.86,NE,37,4.0,8.0,79,0.00,,,0.00,,2014-01-22 01:42:00,
2014-01-21 20:52:00,8.0,3.0,29.87,NNE,26,1.0,7.0,79,0.00,,,0.00,,2014-01-22 01:52:00,
2014-01-21 21:22:00,8.0,3.0,29.86,NNE,31,2.0,8.0,79,0.00,,,0.00,,2014-01-22 02:22:00,
2014-01-21 21:52:00,8.0,3.0,29.86,NNE,32,2.0,8.0,79,0.00,,,0.00,,2014-01-22 02:52:00,
2014-01-21 22:12:00,8.0,3.0,29.84,NE,35,1.0,8.0,79,0.00,,,0.00,,2014-01-22 03:12:00,
2014-01-21 22:22:00,8.0,3.0,29.83,NNE,18,3.0,10.0,79,0.00,,,0.00,,2014-01-22 03:22:00,
2014-01-21 22:53:00,8.0,3.0,29.82,NE,38,3.0,8.0,79,0.00,,,0.00,,2014-01-22 03:53:00,
2014-01-21 23:23:00,8.0,3.0,29.82,NNE,30,5.0,11.0,78,0.00,,,0.00,,2014-01-22 04:23:00,
2014-01-21 23:42:00,8.0,3.0,29.80,NNE,13,1.0,8.0,78,0.00,,,0.00,,2014-01-22 04:42:00,
2014-01-21 23:52:00,8.0,2.0,29.80,NNE,29,3.0,6.0,77,0.00,,,0.00,,2014-01-22 04:52:00,